Total_Precipitation_Accumulation
2.97 3.06 3.63 3.49 2.91 2.79 2.87 2.83 2.89 2.78 2.80 2.91 2.89 2.76 2.61 2.55 2.39 2.43 2.42 2.42 2.43 2.51 2.61 2.65 2.60 2.56 2.51 2.38 2.34 2.49 2.53 2.40 2.67 2.73 2.79 2.77 2.71 2.75 2.86 2.91 2.99 2.14 1.88
2.41 2.38 2.90 2.94 2.73 2.77 2.73 2.78 2.83 2.66 2.63 2.76 2.84 2.72 2.57 2.43 2.41 2.39 2.35 2.42 2.49 2.52 2.65 2.63 2.39 2.28 2.13 2.01 2.10 2.37 2.48 2.51 2.78 2.95 3.12 3.11 3.07 3.05 3.09 3.08 3.07 2.03 1.90
1.95 1.91 2.17 2.45 2.37 2.48 2.49 2.41 2.45 2.38 2.39 2.54 2.64 2.69 2.67 2.53 2.48 2.40 2.30 2.46 2.56 2.46 2.55 2.43 2.19 2.04 1.88 1.77 1.89 2.32 2.50 2.73 3.20 3.40 3.73 3.30 2.84 3.23 3.17 3.07 2.75 2.02 1.90
1.66 1.70 1.76 2.18 2.20 2.07 1.98 2.05 2.26 2.19 2.14 2.26 2.48 2.69 2.80 2.79 2.66 2.56 2.47 2.59 2.57 2.43 2.55 2.36 2.09 1.82 1.67 1.67 1.88 2.20 2.42 2.78 3.28 3.80 4.04 3.13 2.34 2.68 2.74 2.60 2.49 2.10 1.91
1.38 1.50 1.74 1.92 1.92 1.80 1.73 1.82 2.03 1.95 1.99 2.07 2.19 2.47 2.67 2.77 2.90 2.84 2.62 2.49 2.37 2.39 2.41 2.25 1.97 1.70 1.53 1.58 1.85 2.07 2.24 2.75 3.39 3.58 3.14 3.00 2.72 2.59 2.38 2.31 2.33 2.09 1.83
1.21 1.35 1.56 1.73 1.66 1.54 1.55 1.70 1.86 1.87 1.91 1.94 1.96 2.28 2.46 2.48 2.56 2.61 2.53 2.34 2.26 2.21 2.19 2.26 1.92 1.69 1.59 1.65 1.86 2.02 2.22 2.72 3.12 2.73 2.40 2.52 2.29 2.34 2.30 2.37 2.40 2.23 1.89
1.19 1.35 1.45 1.61 1.57 1.54 1.59 1.60 1.70 1.87 1.85 1.82 1.92 2.21 2.36 2.39 2.51 2.47 2.33 2.11 1.97 2.05 2.06 2.11 1.93 1.71 1.60 1.66 1.72 1.88 2.24 2.59 2.47 2.17 2.22 2.44 1.97 1.88 2.22 2.51 2.76 2.57 2.15
1.04 1.24 1.34 1.49 1.54 1.54 1.53 1.52 1.58 1.61 1.63 1.72 1.88 2.09 2.11 2.15 2.27 2.23 2.16 2.06 1.81 1.91 1.90 1.80 1.91 1.73 1.65 1.60 1.58 1.62 1.89 2.13 1.88 1.79 2.01 2.15 1.70 1.86 2.31 2.67 3.02 2.89 2.49
0.99 1.11 1.35 1.48 1.53 1.53 1.51 1.47 1.57 1.64 1.56 1.59 1.73 1.91 2.05 2.03 1.97 1.92 1.99 2.00 1.79 1.71 1.63 1.60 1.74 1.81 1.68 1.58 1.49 1.55 1.77 2.12 1.96 1.88 1.73 1.83 1.71 1.97 2.49 2.74 2.92 2.85 2.61
1.38 1.30 1.29 1.31 1.41 1.44 1.38 1.50 1.64 1.69 1.59 1.58 1.71 1.88 2.05 1.97 1.89 1.81 1.68 1.82 1.80 1.66 1.54 1.49 1.62 1.75 1.57 1.58 1.59 1.73 1.93 2.04 1.95 1.95 1.89 1.69 1.76 2.14 2.56 2.70 2.87 2.75 2.55
1.96 1.96 1.69 1.46 1.41 1.50 1.36 1.39 1.76 1.91 1.81 1.91 2.09 2.16 2.33 2.34 2.13 2.10 1.99 2.10 1.96 1.88 1.81 1.78 1.76 1.90 1.70 1.54 1.68 1.92 1.93 1.94 2.32 2.39 1.92 1.63 1.92 2.48 2.75 2.81 2.80 2.65 2.53
2.43 2.46 2.10 1.80 1.56 1.41 1.21 1.48 1.90 1.90 2.05 2.23 2.42 2.30 2.61 2.82 2.66 2.14 2.40 2.72 2.61 2.54 2.38 2.33 2.22 2.02 1.95 1.81 2.20 2.50 2.06 2.27 2.63 2.52 2.05 1.96 2.45 2.97 3.33 3.25 2.89 2.56 2.41
2.76 2.63 2.22 1.98 1.79 1.51 1.56 1.54 1.82 2.16 2.45 2.38 2.25 2.26 2.68 2.60 2.39 2.38 2.58 2.76 2.91 2.73 2.60 2.63 2.68 2.41 2.58 2.96 3.10 2.87 2.38 2.49 2.63 2.59 2.30 2.33 2.93 3.63 4.00 3.79 3.27 2.81 2.52
2.90 2.64 2.29 2.04 1.86 1.76 1.70 1.70 1.85 1.99 2.21 2.30 2.44 2.39 2.62 3.05 3.01 2.93 3.03 3.00 3.08 3.18 3.52 3.32 3.42 3.17 3.08 3.06 3.16 2.96 2.73 2.82 2.87 3.14 3.24 3.07 3.36 3.82 4.34 4.23 3.67 3.21 2.98
3.05 2.86 2.57 2.20 2.18 2.13 2.27 2.37 2.07 2.12 2.22 2.48 2.81 2.79 2.82 3.21 3.20 3.16 3.18 3.29 3.10 3.14 3.37 3.68 3.52 3.57 3.63 3.38 3.00 2.84 3.00 3.06 3.17 3.23 3.34 3.54 3.42 3.55 4.22 4.44 4.07 3.66 3.48
3.52 3.49 3.21 2.80 2.76 2.77 2.69 2.73 2.68 2.40 2.59 2.69 2.88 2.84 2.94 3.21 3.37 3.31 3.11 3.25 3.12 3.09 3.25 3.52 3.54 4.00 3.95 3.83 3.34 3.07 3.11 3.16 3.19 3.29 3.28 3.63 3.54 3.34 3.78 4.20 4.34 4.20 4.00
3.66 3.84 3.78 3.57 3.58 3.56 3.34 3.11 2.91 2.79 2.77 3.06 3.18 3.07 3.11 3.14 3.35 3.33 3.26 3.15 3.14 3.21 3.46 3.55 3.60 3.97 3.93 3.85 3.67 3.37 3.22 2.96 2.86 3.00 3.05 3.23 3.16 3.11 3.36 3.75 4.11 4.28 4.35
3.84 4.07 4.27 4.16 4.18 4.07 3.97 3.74 3.37 3.24 3.27 3.23 3.16 3.20 3.08 3.16 3.27 3.48 3.33 3.10 3.20 3.18 3.43 3.83 3.94 4.16 4.27 4.22 3.92 3.54 3.30 3.16 2.93 2.95 2.80 2.78 3.05 2.70 2.98 3.40 3.69 3.93 4.47
4.16 4.56 4.96 5.02 4.92 4.62 4.29 4.14 4.02 3.87 3.68 3.42 3.36 3.30 3.14 3.08 3.08 3.38 3.33 3.29 3.32 3.55 3.60 3.40 4.02 4.35 4.49 4.40 3.67 3.46 3.07 2.97 2.82 2.63 2.70 2.60 2.78 2.85 2.90 2.88 3.04 3.32 4.23
4.64 5.27 5.40 5.39 5.64 5.40 5.06 4.89 4.70 4.31 3.96 3.65 3.51 3.38 3.09 3.02 2.96 3.33 3.16 3.17 3.31 3.70 3.86 3.95 4.42 4.42 4.27 4.39 3.64 3.26 2.80 2.44 2.42 2.46 2.29 2.32 2.42 2.34 2.60 3.05 3.38 3.10 3.61
4.46 5.09 5.78 5.97 5.82 5.61 5.34 4.90 4.56 4.15 3.93 3.64 3.32 3.10 3.03 2.99 3.12 3.62 3.29 3.61 3.53 3.65 3.72 3.88 4.19 4.20 3.95 4.19 4.23 3.54 2.65 2.13 2.12 2.00 1.99 2.12 2.05 2.07 2.42 3.07 3.33 3.38 3.18
3.86 4.34 4.83 5.18 4.86 4.48 4.32 4.27 4.14 4.05 3.65 3.50 3.42 3.50 3.18 3.18 3.21 3.29 3.57 3.50 3.56 3.71 3.51 3.59 3.97 3.86 3.42 3.80 4.23 4.25 3.35 2.70 2.16 1.64 1.80 1.90 2.05 2.23 2.18 2.27 2.72 3.27 3.21
3.32 3.46 3.65 3.89 3.97 3.98 4.04 4.13 4.28 4.45 4.13 3.99 3.92 3.83 3.35 3.23 3.22 3.32 3.29 3.27 3.45 3.40 3.41 3.41 3.58 3.72 3.59 3.57 3.94 4.33 3.72 3.03 2.39 1.83 1.71 1.69 2.02 2.32 2.26 2.28 2.53 2.95 3.13
2.66 2.90 3.41 3.64 3.74 3.94 4.21 4.23 4.28 4.27 4.21 4.18 4.26 4.16 3.97 3.68 3.46 3.25 3.08 3.06 3.10 3.02 3.17 2.93 3.21 3.44 3.66 3.41 3.49 3.47 3.34 3.28 3.14 2.44 1.90 1.76 2.01 2.22 2.30 2.24 2.37 2.70 2.99
2.22 2.56 3.16 3.72 3.94 4.10 4.32 4.42 4.69 4.51 4.37 4.22 4.26 4.34 4.10 3.81 3.48 3.10 3.08 3.08 3.05 2.94 2.85 2.80 3.07 3.03 3.16 3.22 3.27 3.25 3.31 3.25 3.07 2.80 2.39 2.19 2.07 1.81 1.82 1.97 2.20 2.51 2.76
2.34 2.66 3.11 3.60 3.94 4.10 4.19 4.23 4.34 4.37 4.38 4.14 4.00 3.71 3.28 3.14 3.04 2.80 2.77 2.84 2.78 2.79 2.83 2.79 2.83 2.83 2.90 2.99 3.02 3.02 3.16 3.12 3.09 3.12 2.78 2.53 2.30 1.93 1.76 1.81 1.99 2.24 2.43